[[{"header":{"parameterUnit":"m.s-1","parameterCategory":1,"la1":30.2991,"la2":30.254,"lo1":-89.0895,"lo2":-89.0444,"dy":0.0017,"dx":0.0017,"nx":28,"ny":28,"refTime":"2024-07-26T09:00:00:Z","depth":0,"parameterNumber":2,"parameterNumberName":"U-component_of_WINDS"},"data":[0,0,0,0,0,0,0,0,0,0,0,0,0,0,0,0,0,0,0,0,0,0,0,0,0,0,0,0,0,0,0,0,0,0,0,0,0,0,0,0,0,0,0,0,0,0,0,0,0,0,0,0,0,0,0,0,0,0,3.3213,3.3214,0,3.3281,3.3282,3.3283,3.3217,3.3215,3.3212,3.321,3.3276,3.328,3.3285,0,0,0,0,0,0,0,0,0,0,0,0,0,3.3022,3.3026,3.3213,3.3214,3.3214,3.3281,3.3282,3.3283,3.3218,3.3215,3.3212,3.3209,3.3275,3.328,3.3285,0,0,0,0,0,0,0,0,0,0,0,0,0,3.3099,3.3027,3.3213,3.319,3.3189,3.3281,3.3282,3.3283,3.3219,3.3215,3.3211,3.3207,3.3273,3.3279,3.3286,3.3402,0,0,3.3305,3.3308,0,0,0,0,0,0,0,0,3.3095,3.3106,3.3193,3.3192,3.319,3.3237,3.3239,3.3323,3.322,3.3207,3.321,3.3205,3.3266,3.3273,3.3294,3.3405,3.3408,3.3305,3.3309,3.3312,3.3314,0,0,0,0,0,0,0,3.3089,3.3103,3.324,3.3194,3.3193,3.3175,3.3182,3.3255,3.3257,3.3208,3.3203,3.3213,3.3265,3.3288,3.3295,3.3409,3.3305,3.3311,3.3315,3.3317,3.3617,3.3621,0,0,0,0,0,0,3.3087,3.3099,3.3237,3.3242,3.3132,3.3182,3.3189,3.3226,3.3257,3.3258,3.3216,3.3209,3.3279,3.3288,3.3297,3.3433,3.3312,3.3318,3.3321,3.3613,3.3618,3.3622,0,0,0,0,0,0,3.3083,3.31,3.3235,3.3169,3.3185,3.3189,3.3231,3.3229,3.3252,3.3263,3.3262,3.3239,3.3277,3.3288,3.3376,3.3435,3.3321,3.3326,3.3608,3.3614,3.362,3.3708,0,0,0,0,0,0,3.3078,3.3099,3.3144,3.3171,3.3189,3.3314,3.3235,3.3233,3.3264,3.3256,3.3285,3.3285,3.3274,3.3367,3.3383,3.3441,3.3331,3.3603,3.3611,3.3618,3.37,3.3717,3.3731,0,0,0,0,0,3.3071,3.3166,3.3147,3.3164,3.3246,3.3318,3.3328,3.3314,3.3269,3.3313,3.332,3.3285,3.3427,3.3377,3.3393,3.3455,3.3599,3.3608,3.3618,3.3693,3.3713,3.3731,0,0,0,0,0,0,3.3145,3.3169,3.3148,3.3254,3.3285,3.3306,3.3362,3.3336,3.3379,3.337,3.335,3.3357,3.345,3.3462,3.3406,3.3568,3.3505,3.3518,3.3557,3.3576,3.3591,3.3585,3.3336,0,0,0,0,0,3.3174,3.3232,3.3249,3.3341,3.3358,3.3358,3.3389,3.3376,3.3406,3.3418,3.343,3.346,3.3511,3.3545,3.3592,3.3702,3.3706,3.3753,3.3768,3.3781,3.3792,3.3848,3.3868,3.3653,3.3653,3.3653,0,0,3.3234,3.3254,3.3292,3.3357,3.3379,3.3437,3.3369,3.3434,3.3477,3.3427,3.351,3.3521,3.3553,3.3652,3.3696,3.3664,3.3852,3.3793,3.3803,3.3807,3.386,3.388,3.3898,3.366,3.3659,3.3658,0,0,3.3372,3.3395,3.3472,3.3496,3.353,3.353,3.3549,3.3575,3.358,3.3664,3.3627,3.3678,3.3767,3.379,3.3813,3.396,3.3928,3.3977,3.4056,3.4112,3.4128,3.4143,3.4193,3.4211,3.3988,3.3988,3.3988,0,3.3441,3.3529,3.3516,3.3583,3.3612,3.3572,3.3649,3.3672,3.372,3.374,3.3705,3.3815,3.3833,3.3935,3.3971,3.3993,3.4012,3.3972,3.4127,3.4142,3.4156,3.4203,3.4222,3.3994,3.3993,3.3992,3.3992,0,3.3611,3.3673,3.3732,3.378,3.3815,3.3888,3.3883,3.3921,3.3905,3.3908,3.3993,3.4014,3.4064,3.4088,3.4073,3.4188,3.4167,3.4131,3.4066,3.4182,3.4225,3.4243,3.4001,3.3999,3.3998,3.3996,0,0,3.3796,3.3836,3.3857,3.3877,3.3913,3.3959,3.4029,3.408,3.4111,3.4146,3.4202,3.4278,3.4244,3.4271,3.4258,3.4308,3.4419,3.4264,3.4264,3.4289,3.4544,3.4569,3.459,3.44,3.4403,3.4406,3.454,0,3.3933,3.4055,3.4045,3.416,3.4215,3.4178,3.4238,3.4266,3.427,3.4317,3.4322,3.4375,3.4327,3.4343,3.439,3.4396,3.4469,3.4386,3.4449,3.4452,3.4439,3.4613,3.464,3.4766,3.4557,3.456,3.4562,0,3.4108,3.4149,3.427,3.4296,3.4318,3.4373,3.4417,3.4464,3.4493,3.4493,3.4523,3.4502,3.4571,3.4507,3.46,3.4544,3.4569,3.4576,3.4581,3.4583,3.4512,3.4617,3.4806,3.4823,3.459,3.4587,3.4586,0,3.4227,3.4313,3.4395,3.4415,3.4447,3.4486,3.4501,3.4527,3.4558,3.4596,3.4615,3.4662,3.4686,3.4722,3.4713,3.4668,3.4807,3.4743,3.4806,3.4806,3.4834,3.4832,3.5026,3.4857,3.4856,3.4856,3.4856,0,3.4379,3.4453,3.4449,3.4499,3.4581,3.4569,3.4649,3.466,3.4683,3.4734,3.4705,3.4753,3.474,3.4787,3.4781,3.4857,3.4869,3.4869,3.4866,3.487,3.4869,3.4884,3.4873,3.4861,3.486,3.4859,3.4858,0,3.4523,3.4524,3.4611,3.4635,3.4643,3.4702,3.4721,3.4768,3.4771,3.4835,3.485,3.4854,3.4907,3.4903,3.4964,3.496,3.5053,3.5041,3.5043,3.5039,3.51,3.5093,3.5307,3.5334,3.5151,3.5153,3.5154,0,3.4619,3.4675,3.4705,3.4737,3.4755,3.4808,3.4839,3.4829,3.4862,3.49,3.4941,3.4993,3.5033,3.512,3.5127,3.5173,3.516,3.5232,3.5166,3.5167,3.5157,3.5152,3.5156,3.5243,3.5245,3.5247,3.5248,0,3.4786,3.4784,3.483,3.4877,3.4914,3.495,3.4983,3.5011,3.5003,3.5042,3.5097,3.5128,3.519,3.524,3.5283,3.5297,3.5271,3.527,3.5286,3.5288,3.5286,3.5285,3.5074,3.5264,3.5262,3.5261,3.526,3.526,3.4907,3.4954,3.4983,3.5035,3.5059,3.509,3.5134,3.5143,3.5189,3.5239,3.523,3.5291,3.5318,3.5373,3.5392,3.5438,3.5412,3.5436,3.5442,3.5447,3.5453,3.5282,3.5446,3.5446,3.5445,3.5445,3.5445,0,3.507,3.5087,3.5135,3.5182,3.5222,3.5197,3.5231,3.5266,3.532,3.5348,3.5389,3.5451,3.5499,3.5511,3.5557,3.5592,3.5581,3.5604,3.5599,3.5602,3.5475,3.5455,3.5612,3.5612,3.5612,3.5612,3.5612,3.5612,3.516,3.5238,3.5239,3.5328,3.5344,3.5404,3.5425,3.5453,3.5475,3.5546,3.5586,3.5594,3.5615,3.5663,3.5705,3.5707,3.5724,3.5751,3.5748,3.5628,3.5612,3.5595,3.5576,3.5756,3.5756,3.5871,3.5872,3.5873]},{"header":{"parameterUnit":"m.s-1","parameterCategory":1,"la1":30.2991,"la2":30.254,"lo1":-89.0895,"lo2":-89.0444,"dy":0.0017,"dx":0.0017,"nx":28,"ny":28,"refTime":"2024-07-26T09:00:00:Z","depth":0,"parameterNumber":3,"parameterNumberName":"V-component_of_WINDS"},"data":[0,0,0,0,0,0,0,0,0,0,0,0,0,0,0,0,0,0,0,0,0,0,0,0,0,0,0,0,0,0,0,0,0,0,0,0,0,0,0,0,0,0,0,0,0,0,0,0,0,0,0,0,0,0,0,0,0,0,1.4661,1.4661,0,1.4714,1.4715,1.4715,1.4684,1.4682,1.4681,1.4679,1.4736,1.4738,1.4741,0,0,0,0,0,0,0,0,0,0,0,0,0,1.4532,1.4535,1.4661,1.4661,1.4662,1.4714,1.4715,1.4715,1.4684,1.4682,1.4681,1.4679,1.4735,1.4738,1.4742,0,0,0,0,0,0,0,0,0,0,0,0,0,1.4587,1.4535,1.4661,1.4653,1.4653,1.4714,1.4715,1.4715,1.4685,1.4682,1.468,1.4678,1.4733,1.4738,1.4742,1.4814,0,0,1.4755,1.4757,0,0,0,0,0,0,0,0,1.4584,1.4592,1.4653,1.4653,1.4653,1.469,1.469,1.4749,1.4685,1.4673,1.4679,1.4677,1.4722,1.4727,1.4742,1.4817,1.4819,1.4756,1.4758,1.476,1.4761,0,0,0,0,0,0,0,1.458,1.4589,1.4682,1.4654,1.4654,1.4646,1.4652,1.4701,1.471,1.4673,1.4671,1.4678,1.4722,1.4738,1.4744,1.482,1.4756,1.4759,1.4762,1.4764,1.4954,1.4957,0,0,0,0,0,0,1.4577,1.4586,1.468,1.4683,1.4612,1.4651,1.4657,1.4681,1.4709,1.4711,1.468,1.4676,1.4732,1.4739,1.4745,1.4831,1.476,1.4764,1.4767,1.4952,1.4955,1.4958,0,0,0,0,0,0,1.4574,1.4585,1.4678,1.4634,1.4645,1.4655,1.4682,1.4683,1.4699,1.4714,1.4715,1.4695,1.473,1.4739,1.4797,1.4832,1.4766,1.477,1.4949,1.4953,1.4956,1.5003,0,0,0,0,0,0,1.4571,1.4585,1.4613,1.4635,1.4648,1.4729,1.4685,1.4685,1.4707,1.4702,1.4728,1.4731,1.4729,1.479,1.4801,1.4837,1.4774,1.4946,1.4951,1.4955,1.4998,1.5008,1.5016,0,0,0,0,0,1.4566,1.4624,1.4614,1.4626,1.4683,1.4731,1.4738,1.4735,1.471,1.4737,1.4746,1.473,1.4826,1.4797,1.4808,1.4846,1.4944,1.4949,1.4955,1.4994,1.5006,1.5016,0,0,0,0,0,0,1.4607,1.4627,1.4616,1.4683,1.4706,1.4726,1.4761,1.4748,1.4778,1.4773,1.4769,1.4775,1.4835,1.4846,1.4812,1.4917,1.4881,1.4889,1.4907,1.4918,1.4927,1.4923,1.4777,0,0,0,0,0,1.4623,1.4661,1.4677,1.4734,1.4746,1.4751,1.4772,1.4768,1.4791,1.48,1.4814,1.4837,1.4872,1.4896,1.4929,1.4999,1.5004,1.5031,1.504,1.5047,1.5054,1.5091,1.5102,1.4976,1.4976,1.4976,0,0,1.4659,1.4674,1.4699,1.4743,1.476,1.4798,1.476,1.4802,1.4831,1.4807,1.4862,1.4872,1.4897,1.4961,1.499,1.4973,1.509,1.5054,1.5059,1.5063,1.5097,1.5109,1.512,1.4979,1.4979,1.4978,0,0,1.4742,1.4758,1.4807,1.4824,1.4849,1.4852,1.4864,1.4886,1.4891,1.4946,1.4928,1.4961,1.5023,1.5041,1.5059,1.5146,1.5132,1.5157,1.5204,1.5239,1.5249,1.5258,1.5289,1.53,1.5164,1.5165,1.5165,0,1.4783,1.484,1.4835,1.4878,1.4898,1.4876,1.4926,1.4942,1.4978,1.4991,1.4971,1.5046,1.5062,1.5129,1.515,1.5165,1.5178,1.5155,1.5248,1.5257,1.5265,1.5294,1.5306,1.5168,1.5167,1.5167,1.5167,0,1.4889,1.4928,1.4965,1.4998,1.5022,1.5068,1.5069,1.5093,1.5086,1.5091,1.5146,1.5163,1.5199,1.5215,1.5209,1.528,1.5269,1.5248,1.5213,1.528,1.5307,1.5319,1.5172,1.5171,1.517,1.5169,0,0,1.5002,1.5029,1.5043,1.5057,1.5082,1.5112,1.5157,1.5191,1.5211,1.5236,1.5273,1.5324,1.5304,1.5324,1.532,1.5351,1.5418,1.5326,1.5327,1.5342,1.5496,1.5512,1.5525,1.5408,1.541,1.5411,1.5494,0,1.5087,1.5164,1.5159,1.5232,1.5268,1.5247,1.5285,1.5305,1.531,1.5341,1.5346,1.5382,1.5355,1.5366,1.5396,1.5403,1.5449,1.5397,1.5442,1.5444,1.5436,1.5539,1.5556,1.5633,1.5505,1.5507,1.5508,0,1.5197,1.5223,1.5299,1.5317,1.5332,1.5367,1.5397,1.5426,1.5447,1.5449,1.5469,1.5459,1.5503,1.5465,1.5526,1.5491,1.5509,1.5515,1.5518,1.5522,1.548,1.5546,1.5658,1.567,1.5525,1.5523,1.5522,0,1.527,1.5325,1.5378,1.539,1.5412,1.5437,1.5448,1.5466,1.5486,1.5512,1.5525,1.5556,1.5573,1.5597,1.5595,1.5568,1.5656,1.5619,1.5658,1.5658,1.5679,1.5677,1.5795,1.569,1.569,1.5689,1.5689,0,1.5366,1.5413,1.5411,1.5443,1.5495,1.5488,1.554,1.5547,1.5563,1.5596,1.558,1.5611,1.5607,1.5638,1.5636,1.5686,1.5694,1.5696,1.5695,1.5698,1.5697,1.571,1.5704,1.5692,1.5692,1.5691,1.5691,0,1.5458,1.5458,1.5514,1.5529,1.5534,1.5572,1.5585,1.5615,1.5618,1.5659,1.5669,1.5673,1.5709,1.5709,1.575,1.5748,1.5809,1.5802,1.5802,1.5801,1.584,1.5836,1.597,1.5986,1.5871,1.5872,1.5873,0,1.5519,1.5555,1.5573,1.5594,1.5605,1.5639,1.5659,1.5653,1.5674,1.5699,1.5726,1.576,1.5787,1.5844,1.5851,1.5882,1.5875,1.592,1.588,1.5881,1.5875,1.5873,1.5876,1.5928,1.5929,1.593,1.5931,0,1.5627,1.5625,1.5654,1.5683,1.5707,1.573,1.5751,1.5768,1.5764,1.5789,1.5824,1.5845,1.5886,1.5919,1.5948,1.5958,1.5944,1.5943,1.5954,1.5957,1.5955,1.5956,1.5823,1.594,1.5939,1.5939,1.5938,1.5938,1.5705,1.5735,1.5753,1.5785,1.58,1.5819,1.5848,1.5853,1.5883,1.5915,1.5909,1.5949,1.5967,1.6004,1.6017,1.6047,1.6032,1.6047,1.6051,1.6055,1.6059,1.595,1.6052,1.6052,1.6052,1.6052,1.6051,0,1.5812,1.5822,1.5852,1.588,1.5906,1.5889,1.591,1.5933,1.5967,1.5985,1.6011,1.6051,1.6083,1.6091,1.6121,1.6144,1.6138,1.6152,1.6151,1.6153,1.6072,1.6059,1.6156,1.6156,1.6156,1.6156,1.6156,1.6156,1.5871,1.592,1.592,1.5976,1.5985,1.6023,1.6037,1.6054,1.6068,1.6113,1.6139,1.6144,1.6157,1.6188,1.6216,1.6218,1.6229,1.6246,1.6245,1.6169,1.6159,1.6149,1.6137,1.6249,1.6249,1.6324,1.6324,1.6325]}]]